Location: Peebles
(55.6412°N, 3.1714°W)
Time: 02:13:22
(UTC+01:00)

Envisat - Pass Details

Date: 25 August 2022
Orbit: 763 x 765 km, 98.2° (Epoch: 30 September)

Event Time Altitude Azimuth Distance (km) Brightness Sun altitude
Rises 04:11:20 0° 26° (NNE) 3,246 7.7 -14.1°
Reaches altitude 10° 04:14:42 10° 49° (NE) 2,313 7.0 -13.8°
Maximum altitude 04:17:36 15° 84° (E) 1,974 5.9 -13.5°
Drops below altitude 10° 04:20:29 10° 119° (ESE) 2,303 5.7 -13.2°
Sets 04:23:48 0° 142° (SE) 3,222 6.2 -12.8°
